Starlink 5636

operational
NORAD ID: 55454 Int'l Des: 2023-015 Owner: SPXS Country: US Constellation: starlink
LEOCIRCULAR

About Starlink 5636

Description loading...

Live Position

Loading 3D Globe...

Upcoming Passes

Altitude History

Altitude vs Time

uPlot chart will show altitude changes over time

Two-Line Element Set

1 55454U 23015F 25350.27348908 -.00000783 00000-0 -42911-4 0 9991
2 55454 43.0047 59.4474 0001504 269.9140 90.1530 15.02522107158206
Epoch: Dec 16, 2025 • Age: 21 hours

Current Status

Altitude 562.9 km
Velocity 7.59 km/s
Sub-Earth Point 41.29°N, 22.57°E
Launch Date Feb 2, 2023
Age 2.8 years
Type internet

Technical Details

Classification Payload
Mass 305.00 kg
Dry Mass 290.00 kg
Total Mass 305.00 kg
Length 0.20 m
Diameter 2.80 m
Span 9.00 m
Shape Box + pan
Manufacturer SPXS
Bus Type Starlink
Phase Status In Orbit
Owner/State SPXS/US

Large Constellations

Loading constellations...